Tracking 29487 objects as of 11-Sep-2024
HD Live streaming from Space Station
objects crossing your sky now

FENGYUN 1C DEB

Track FENGYUN 1C DEB now!
10-day predictions


NORAD ID: 30815
Int'l Code: 1999-025AUZ
Perigee: 743.9 km
Apogee: 747.1 km
Inclination: 99.3 °
Period: 99.6 minutes
Semi major axis: 7116 km
RCS: 0.0091 m2 (small)
Launch date: May 10, 1999
Source: People's Republic of China (PRC)
Launch site: Taiyaun Space Center, China (TSC)

Note: This is SATELLITE DEBRIS
Your satellite tracking list
Your tracking list is empty




NASA's NSSDC Master Catalog

Two Line Element Set (TLE):
1 30815U 99025AUZ 24253.25243799  .00041758  00000-0  11635-1 0  9991
2 30815  99.3001 347.1312 0002256 216.6985 199.7440 14.46112522910725
Source of the keplerian elements: AFSPC